User: anonymous   Login
Location: Brachbach
(49.1847°N, 9.7240°E)
Time: 08:47:57
(UTC+00:00)
Language:

SL-27 R/B - Orbit

View from above orbital plane
View from above orbital plane
View from above satellite
View from above satellite

Ground track
Ground track

The orbit data is extracted from the following two-line orbital elements,

1 40354U 14084B   24196.90448411  .00082063  00000-0  43810-3 0  9994
2 40354  74.7206 149.0409 0017651 278.4542  81.4690 15.79824911538510
Epoch (UTC): 14 July 2024 21:42:27
Eccentricity: 0.0017651
inclination: 74.7206°
perigee height: 319 km
apogee height: 343 km
right ascension of ascending node: 149.0409°
argument of perigee: 278.4542°
revolutions per day: 15.79824911
mean anomaly at epoch: 81.4690°
orbit number at epoch: 53851

The dashed part of the orbit path shows where the satellite is in the earth's shadow,  

DLR